Location: La Sioule Rivi�re
(46.3664°N, 3.3197°E)
Time: 12:40:39
(UTC+00:00)

Lacrosse 5 - Pass Details

Date: 29 October 2020
Orbit: 716 x 723 km, 57.0° (Epoch: 06 November)

Event Time Altitude Azimuth Distance (km) Brightness Sun altitude
Rises 19:54:58 0° 309° (NW) 3,126 6.1 -34.6°
Reaches altitude 10° 19:57:23 10° 313° (NW) 2,204 5.0 -35.0°
Enters shadow 19:59:23 23° 321° (NW) 1,486 3.9 -35.3°
